Wind_Speed
25 23 24 27 28 29 34 38 40 43 40 40 42 38 35 35 31 27 28 27 26 26 24 30 26 25 24 23 27 29 28 26 22 21 21 22 21 23 22 20 19 20 21
32 31 31 33 33 35 38 40 40 41 41 45 47 42 41 41 38 32 30 28 33 32 27 29 25 27 27 27 29 30 29 26 22 21 23 24 24 23 23 21 20 21 23
32 33 34 33 36 39 42 44 45 43 45 44 49 50 47 47 41 36 35 33 34 35 34 33 26 28 29 30 29 29 29 26 25 25 23 23 23 23 21 21 22 23 24
26 29 33 37 39 40 43 46 49 49 53 51 50 57 54 52 46 38 37 39 41 41 36 31 28 28 29 30 29 28 30 31 29 28 26 24 22 23 23 22 22 24 25
29 32 36 38 38 37 40 45 49 53 53 51 55 45 54 53 49 44 48 44 37 31 33 30 29 28 29 31 33 31 32 34 33 31 29 27 23 22 24 22 22 23 23
33 36 39 40 37 37 39 40 40 41 42 41 46 39 45 44 47 42 45 39 40 36 31 30 30 30 30 32 35 35 35 36 36 34 31 28 25 24 24 23 22 22 21
34 37 41 42 39 37 38 39 44 44 41 43 44 36 34 39 48 42 39 38 40 36 29 32 33 34 34 34 35 36 36 35 34 34 32 29 27 27 27 24 21 21 19
37 36 37 35 30 30 33 38 40 42 43 45 41 30 29 33 40 34 34 34 37 39 34 31 33 36 37 36 35 36 35 34 34 34 33 31 29 29 28 24 21 19 18
38 34 33 27 21 20 23 26 25 30 33 30 26 21 26 21 19 25 29 33 36 37 33 32 35 37 37 38 37 36 35 33 32 32 33 31 30 31 28 25 22 19 17
31 31 27 21 15 16 15 14 11 16 18 12 8 9 15 20 24 25 28 31 33 35 35 35 37 38 36 36 36 35 32 32 32 32 32 32 32 32 29 25 23 21 17
26 24 22 18 15 13 10 12 12 11 8 10 10 10 15 18 21 24 25 27 30 33 33 34 34 34 32 32 33 34 32 32 32 30 30 32 33 32 29 25 23 20 19
22 22 21 17 15 13 9 7 10 12 13 16 17 17 19 21 23 25 26 28 28 30 31 32 32 32 31 31 30 30 30 30 30 29 28 30 32 32 29 25 22 20 19
21 22 20 18 16 18 18 17 16 17 19 22 22 22 23 25 27 28 29 32 34 33 33 31 30 31 30 29 27 28 29 28 28 27 26 28 30 32 29 25 24 21 20
25 25 25 27 27 27 28 28 27 25 25 25 25 27 28 29 29 28 28 30 34 34 31 30 30 30 28 25 24 25 25 26 28 28 26 25 27 29 28 25 24 21 21
30 31 31 31 31 33 34 34 34 33 32 31 31 31 32 34 34 33 32 32 32 31 32 31 30 29 29 28 27 25 25 24 22 22 22 22 24 25 26 25 22 20 21
34 34 34 33 33 33 35 36 36 36 35 34 35 34 36 38 38 37 35 35 33 32 33 33 31 30 30 28 25 25 27 28 26 23 21 22 22 22 23 24 21 20 20
36 36 37 35 33 34 35 36 37 36 36 36 36 37 38 40 41 39 37 35 34 34 32 31 29 29 29 29 26 26 27 26 27 28 27 26 26 26 25 26 25 23 23
34 34 33 32 31 30 30 32 34 35 34 36 37 39 41 43 42 43 40 34 36 36 33 30 27 28 28 28 28 28 24 23 25 25 25 25 25 24 25 26 27 27 28
27 26 26 27 28 28 28 29 30 33 33 33 35 36 37 38 37 39 37 35 37 39 36 33 30 32 32 31 32 32 28 27 27 27 27 26 24 24 24 25 25 26 27
23 24 25 27 28 28 27 28 29 29 29 29 30 31 32 31 30 31 30 28 30 35 35 34 35 38 38 39 39 38 35 32 32 31 30 29 28 27 25 26 26 27 28
18 21 23 26 27 27 26 25 23 22 21 21 20 21 22 22 24 24 24 25 26 26 28 30 34 37 38 39 40 39 37 35 35 34 33 33 33 32 32 32 31 31 31
18 21 22 24 24 23 21 20 19 16 14 12 13 15 17 20 21 23 24 24 25 24 22 26 28 30 32 33 36 37 39 40 40 39 37 37 36 36 35 35 35 35 35
21 22 22 19 18 18 18 19 19 19 18 19 20 20 20 21 21 20 21 24 26 26 25 24 28 31 32 34 38 39 40 41 42 42 43 44 43 41 39 37 36 35 35
22 20 16 14 15 16 16 17 20 19 20 21 23 23 22 23 21 23 26 25 24 26 25 24 25 27 27 28 31 35 39 42 44 46 48 49 48 45 43 40 38 37 37
17 14 14 16 15 14 13 14 17 22 23 25 22 21 21 20 23 29 29 30 30 30 31 32 30 30 31 31 32 34 32 30 31 35 39 42 42 41 38 35 34 34 35
15 16 17 17 18 18 18 17 17 20 24 27 30 31 29 26 24 27 30 32 34 37 38 37 35 33 33 34 33 33 34 33 32 33 31 29 29 29 30 30 31 32 33
Wind_Direction
252 249 244 241 241 245 248 248 251 253 256 260 261 260 262 264 262 263 264 268 273 274 273 272 269 269 269 271 280 287 290 291 292 291 291 291 293 296 297 296 291 289 286
258 256 253 249 245 246 246 248 253 257 255 255 255 251 258 260 259 260 262 269 272 266 266 270 270 271 272 275 280 286 287 287 290 290 290 291 293 293 296 298 295 291 291
261 262 262 256 256 255 252 254 256 255 253 253 253 242 247 257 255 255 261 269 270 261 260 265 267 268 271 277 282 284 285 285 288 289 290 289 290 291 293 296 297 295 293
269 273 270 261 258 255 256 261 262 260 256 254 255 244 239 242 239 246 257 261 268 267 262 259 260 264 270 275 280 285 288 288 290 290 289 285 283 289 294 295 294 292 291
273 278 279 273 266 262 261 265 266 266 268 265 259 249 225 226 240 243 252 259 262 255 245 250 257 263 269 274 277 281 284 286 288 289 288 285 281 284 293 296 293 291 292
271 275 277 277 275 267 261 266 270 274 280 277 264 242 217 223 248 250 253 254 263 261 244 254 263 267 270 274 277 280 283 283 284 285 284 281 277 280 287 290 291 290 289
270 274 281 286 282 273 262 263 272 279 284 277 272 255 241 243 252 251 260 264 263 259 252 257 263 267 270 274 277 280 283 283 280 279 277 274 272 275 281 285 286 284 283
271 275 279 285 285 282 268 262 272 277 284 277 272 281 268 261 243 240 258 262 254 251 251 256 264 268 272 275 278 281 283 282 279 274 270 267 261 265 272 280 280 277 275
263 267 273 279 286 287 275 260 269 268 271 281 298 306 267 265 262 241 243 250 251 253 259 263 267 271 274 277 280 282 282 280 275 270 265 259 255 258 264 273 275 270 270
259 264 264 268 288 303 289 252 257 267 270 279 293 269 258 261 249 237 236 244 253 260 265 268 266 268 272 273 275 276 278 280 275 270 266 256 250 254 261 268 269 263 261
255 262 266 268 285 300 291 247 239 248 256 267 270 262 251 250 252 252 254 257 259 262 264 264 266 267 268 269 269 270 273 273 271 269 265 255 249 252 260 264 264 257 253
257 269 272 279 278 267 262 245 248 259 275 278 270 262 259 258 258 257 257 258 259 262 263 262 262 262 263 265 265 265 268 267 265 264 262 253 249 252 260 261 261 253 244
258 265 260 257 255 259 261 258 261 270 275 275 272 268 268 264 259 254 251 253 257 261 262 260 263 265 264 264 262 265 267 266 264 259 259 254 249 250 253 255 256 247 239
262 264 259 255 260 263 265 270 274 275 273 273 273 273 272 270 267 265 260 256 256 259 261 262 263 265 261 259 261 266 264 266 260 255 255 252 247 248 249 251 252 247 243
271 272 267 261 263 264 265 268 269 272 272 269 268 269 270 272 273 273 270 266 262 261 262 265 263 259 258 257 259 262 260 265 259 251 248 245 241 242 246 250 249 246 242
273 275 275 271 268 267 266 266 267 267 268 269 267 265 266 268 269 271 271 269 267 265 263 265 264 261 258 255 257 259 257 262 254 250 250 245 241 237 247 245 245 247 244
277 281 282 280 275 270 268 268 269 268 265 264 263 262 261 262 263 265 264 263 262 258 259 258 261 262 259 257 256 257 259 259 254 253 251 245 242 244 249 246 245 247 244
278 278 277 275 274 272 269 268 269 269 268 266 265 263 260 259 259 260 262 260 259 258 258 256 256 260 260 259 258 255 250 249 250 250 249 248 250 251 250 249 247 246 245
278 277 275 274 272 272 272 273 273 271 269 266 264 263 264 266 266 266 265 262 259 257 257 258 255 255 254 254 255 251 249 248 247 247 248 249 251 251 251 250 246 243 243
280 284 285 282 278 276 276 279 278 274 270 266 262 261 260 262 265 267 269 267 260 258 256 257 258 254 251 252 254 252 252 252 249 246 247 249 251 250 248 247 245 244 245
294 297 295 290 284 280 280 281 278 273 271 268 263 261 262 260 261 264 267 266 260 257 259 259 257 257 253 253 256 253 252 253 253 249 247 249 251 250 249 249 249 250 249
301 304 299 294 287 281 279 277 271 268 271 269 262 265 262 263 263 265 266 263 255 241 237 245 248 254 257 258 257 255 255 252 253 251 250 251 251 250 251 252 252 253 254
296 300 296 295 293 289 282 268 262 264 264 262 261 260 257 261 271 272 271 267 264 260 253 253 254 254 257 260 261 259 257 255 255 256 256 258 254 250 252 254 254 255 256
294 294 291 294 302 301 292 275 258 260 260 256 253 251 254 256 256 272 278 274 274 275 279 286 286 281 278 272 268 262 256 255 256 257 257 256 253 251 253 256 259 261 262
289 288 289 293 295 295 295 287 268 262 263 260 254 251 252 266 276 276 269 266 269 270 274 280 279 278 274 273 270 268 267 266 265 261 258 256 255 255 257 263 268 270 269
294 290 287 283 279 279 282 286 283 272 268 270 273 276 278 279 277 267 261 264 265 267 269 272 274 272 271 270 270 269 266 261 256 259 259 256 258 262 265 265 266 268 269
Height
5871 5874 5874 5874 5875 5875 5874 5871 5869 5866 5865 5867 5870 5871 5871 5872 5874 5876 5878 5879 5880 5880 5878 5880 5879 5880 5880 5880 5880 5880 5879 5878 5877 5876 5873 5873 5872 5870 5869 5868 5866 5864 5863
5862 5863 5864 5866 5867 5868 5867 5864 5861 5858 5858 5857 5858 5861 5860 5861 5864 5866 5869 5871 5873 5873 5871 5872 5872 5872 5872 5874 5874 5874 5874 5873 5871 5870 5868 5867 5867 5865 5864 5862 5861 5860 5858
5853 5855 5856 5858 5859 5859 5859 5857 5852 5848 5845 5844 5845 5845 5847 5848 5852 5854 5858 5861 5863 5865 5864 5865 5865 5867 5866 5866 5867 5866 5866 5866 5865 5864 5863 5862 5861 5859 5858 5857 5855 5854 5852
5845 5845 5846 5847 5848 5848 5847 5844 5840 5838 5834 5834 5831 5825 5826 5834 5837 5843 5846 5850 5852 5853 5856 5857 5859 5860 5860 5860 5859 5860 5860 5858 5858 5857 5857 5857 5856 5853 5852 5852 5849 5847 5846
5836 5835 5833 5832 5833 5834 5833 5830 5828 5824 5823 5828 5831 5828 5815 5821 5826 5831 5835 5841 5843 5843 5844 5845 5849 5851 5853 5853 5853 5854 5854 5852 5850 5850 5849 5849 5849 5847 5846 5845 5843 5841 5840
5826 5825 5822 5822 5823 5824 5821 5819 5816 5815 5812 5816 5820 5820 5808 5811 5816 5823 5827 5834 5837 5839 5839 5840 5843 5843 5845 5846 5846 5846 5846 5844 5843 5842 5842 5843 5843 5842 5841 5839 5837 5835 5835
5817 5817 5815 5815 5816 5816 5815 5812 5810 5807 5804 5807 5809 5811 5813 5810 5809 5818 5821 5825 5829 5831 5833 5835 5835 5836 5837 5837 5836 5835 5836 5837 5836 5835 5835 5836 5837 5837 5836 5833 5831 5830 5830
5809 5809 5808 5808 5809 5810 5809 5807 5805 5802 5800 5802 5804 5800 5804 5805 5810 5816 5817 5818 5820 5823 5824 5826 5827 5828 5829 5829 5828 5827 5827 5827 5827 5827 5826 5827 5828 5830 5830 5828 5826 5825 5825
5802 5802 5802 5802 5801 5801 5800 5799 5799 5799 5798 5797 5796 5797 5801 5803 5807 5810 5812 5811 5812 5815 5816 5816 5819 5820 5821 5820 5819 5819 5818 5818 5818 5818 5817 5817 5819 5821 5822 5821 5820 5821 5820
5796 5795 5796 5796 5795 5793 5792 5792 5793 5793 5790 5789 5791 5791 5795 5796 5799 5801 5801 5801 5803 5806 5807 5808 5810 5812 5812 5811 5811 5811 5810 5810 5810 5810 5810 5810 5811 5813 5814 5815 5814 5815 5816
5787 5787 5787 5788 5787 5786 5785 5784 5786 5788 5787 5788 5790 5791 5793 5793 5793 5794 5795 5795 5797 5799 5799 5800 5802 5804 5805 5804 5803 5803 5802 5802 5802 5802 5802 5803 5804 5805 5808 5809 5809 5809 5810
5779 5779 5779 5780 5780 5780 5780 5781 5782 5782 5784 5785 5787 5787 5786 5787 5787 5789 5790 5790 5790 5791 5792 5793 5794 5796 5796 5796 5795 5795 5795 5793 5793 5794 5794 5795 5797 5798 5801 5803 5804 5804 5804
5772 5772 5773 5773 5773 5773 5774 5776 5776 5777 5778 5779 5780 5780 5780 5781 5782 5782 5783 5783 5783 5784 5786 5787 5787 5787 5787 5787 5788 5787 5786 5784 5785 5786 5787 5788 5789 5791 5794 5795 5797 5798 5799
5764 5765 5766 5766 5767 5766 5767 5768 5769 5770 5771 5772 5771 5771 5772 5772 5773 5774 5774 5774 5775 5776 5777 5778 5778 5778 5778 5778 5779 5779 5778 5777 5777 5778 5779 5780 5781 5784 5787 5788 5789 5790 5792
5756 5757 5758 5759 5759 5759 5759 5759 5760 5761 5762 5763 5763 5762 5762 5762 5762 5763 5764 5764 5764 5766 5767 5769 5769 5769 5768 5769 5771 5770 5769 5769 5768 5769 5771 5772 5774 5777 5781 5782 5783 5785 5786
5746 5747 5748 5750 5750 5750 5750 5750 5750 5751 5751 5752 5752 5751 5751 5750 5751 5751 5752 5753 5755 5756 5757 5759 5759 5759 5759 5759 5760 5761 5761 5762 5763 5764 5765 5766 5768 5771 5774 5776 5777 5779 5780
5737 5737 5737 5737 5738 5737 5737 5738 5738 5738 5740 5741 5741 5740 5740 5740 5742 5742 5742 5743 5745 5746 5747 5748 5750 5749 5749 5751 5751 5752 5753 5754 5756 5757 5758 5760 5762 5764 5766 5768 5771 5773 5774
5730 5729 5728 5726 5726 5726 5726 5726 5726 5726 5727 5728 5727 5727 5727 5728 5731 5731 5733 5736 5735 5736 5737 5738 5739 5740 5741 5742 5743 5744 5745 5746 5748 5750 5751 5752 5753 5755 5758 5760 5763 5765 5767
5721 5721 5721 5720 5719 5718 5717 5717 5717 5717 5716 5716 5715 5716 5717 5717 5719 5720 5722 5723 5724 5726 5728 5729 5731 5731 5732 5733 5735 5737 5738 5739 5740 5742 5744 5745 5746 5748 5750 5752 5754 5756 5758
5714 5713 5713 5712 5711 5711 5710 5709 5708 5707 5706 5706 5706 5707 5708 5709 5711 5712 5712 5713 5714 5715 5719 5722 5723 5723 5723 5724 5725 5727 5729 5731 5732 5734 5735 5737 5739 5740 5742 5745 5747 5749 5751
5708 5707 5705 5703 5702 5701 5701 5701 5700 5699 5698 5698 5698 5699 5701 5703 5705 5705 5705 5705 5706 5707 5709 5710 5712 5713 5714 5715 5716 5718 5719 5721 5723 5724 5726 5729 5731 5733 5735 5738 5740 5742 5743
5703 5701 5699 5696 5694 5693 5693 5693 5693 5693 5693 5693 5694 5695 5697 5697 5698 5698 5698 5699 5699 5701 5701 5702 5702 5703 5705 5706 5706 5708 5710 5712 5714 5715 5717 5719 5722 5725 5727 5730 5732 5734 5736
5696 5695 5693 5691 5689 5688 5687 5687 5688 5688 5689 5690 5691 5691 5692 5693 5693 5694 5694 5694 5694 5694 5693 5693 5694 5696 5696 5697 5699 5700 5701 5703 5705 5706 5708 5710 5712 5715 5717 5720 5722 5724 5726
5690 5689 5687 5686 5686 5684 5684 5684 5684 5685 5685 5685 5685 5686 5686 5687 5687 5688 5688 5688 5688 5687 5687 5687 5687 5688 5689 5689 5689 5690 5691 5692 5692 5694 5696 5698 5701 5703 5705 5708 5711 5713 5715
5686 5685 5684 5683 5682 5682 5681 5681 5681 5681 5681 5681 5680 5681 5681 5681 5682 5681 5681 5681 5682 5681 5680 5680 5680 5680 5680 5680 5681 5680 5682 5682 5682 5684 5685 5688 5691 5692 5694 5697 5700 5703 5704
5681 5680 5679 5678 5677 5677 5677 5677 5677 5676 5675 5675 5674 5675 5674 5673 5674 5676 5675 5674 5673 5672 5671 5671 5671 5670 5671 5670 5671 5672 5673 5674 5675 5675 5677 5677 5679 5680 5682 5685 5688 5690 5692